(65) Cybele
(65) Cybele
Epoch 2007 Oct. 27.0 TT = JDT 2454400.5 Goffin
M 326.24035 (2000.0) P Q
n 0.15487032 Peri. 105.70164 -0.14698405 +0.98881353
a 3.4341868 Node 155.80235 -0.92956869 -0.12932106
e 0.1053566 Incl. 3.54823 -0.33807948 -0.07432277
P 6.36 H 6.62 G 0.01 U 0
From 1416 observations at 103 oppositions, 1861-2002, mean residual 0".56.
An explanation of the orbital
elements is available.These orbital elements are also available in forms suitable for loading into a number of popular planetarium-type software programs.
Personalized ephemerides for this object (and others) can be generated using the MPES.
Date TT R. A. (2000) Decl. Delta r Elong. Phase V 2008 04 30 17 59.77 -18 49.3 2.330 3.074 129.8 14.6 11.9 2008 05 05 17 59.09 -18 43.9 2.279 3.074 134.8 13.5 11.8 2008 05 10 17 57.83 -18 38.9 2.231 3.073 139.9 12.2 11.7 2008 05 15 17 56.03 -18 34.2 2.189 3.073 145.1 10.9 11.6 2008 05 20 17 53.73 -18 30.1 2.152 3.073 150.4 9.4 11.5 2008 05 25 17 50.96 -18 26.5 2.121 3.073 155.7 7.8 11.3 2008 05 30 17 47.80 -18 23.4 2.096 3.073 161.1 6.1 11.2 2008 06 04 17 44.32 -18 20.9 2.077 3.073 166.4 4.4 11.1 2008 06 09 17 40.60 -18 19.1 2.065 3.073 171.4 2.8 11.0 2008 06 14 17 36.76 -18 17.9 2.060 3.073 174.8 1.7 10.9 2008 06 19 17 32.89 -18 17.4 2.062 3.073 173.3 2.2 10.9 2008 06 24 17 29.11 -18 17.7 2.070 3.074 168.8 3.7 11.0 2008 06 29 17 25.49 -18 18.8 2.085 3.074 163.5 5.4 11.2 2008 07 04 17 22.15 -18 20.7 2.107 3.074 158.2 7.1 11.3 2008 07 09 17 19.16 -18 23.5 2.135 3.075 152.9 8.7 11.4 2008 07 14 17 16.61 -18 27.3 2.169 3.076 147.6 10.2 11.5 2008 07 19 17 14.53 -18 31.9 2.208 3.077 142.4 11.6 11.6 2008 07 24 17 12.97 -18 37.5 2.253 3.077 137.3 12.9 11.7 2008 07 29 17 11.95 -18 44.0 2.302 3.078 132.3 14.1 11.8